Preview of NWS' New Version of Forecast
This preview is not operational and should not be used for support decisions.

Regional Weather Roundup (RWR)

Issued by National Weather Service (NWS)

                            
000
ASUS45 KCYS 232110
RWRWY 

WYOMING REGIONAL WEATHER ROUNDUP
NATIONAL WEATHER SERVICE CHEYENNE WY
300 PM MDT FRI AUG 23 2019

NOTE:  "FAIR" INDICATES FEW OR NO CLOUDS BELOW 12,000 FEET
WITH NO SIGNIFICANT WEATHER AND/OR OBSTRUCTIONS TO VISIBILITY.

WYZ001-232200-
YELLOWSTONE NATIONAL PARK
  
CITY           SKY/WX    TMP DP  RH WIND       PRES   REMARKS
LK YELLOWSTONE   N/A     63  34  33 VRB7      30.18S                  
W YELLOWSTONE  NOT AVBL                                               

$$
WYZ002>013-054>058-071-098>099-232200-
NORTHERN WYOMING
  
CITY           SKY/WX    TMP DP  RH WIND       PRES   REMARKS
JACKSON        PTSUNNY   73  38  27 NW12G18   30.08F                  
CODY           FAIR      69  49  48 W5        30.05S                  
GREYBULL       FAIR      80  51  36 SE7       29.93F                  
WORLAND        FAIR      77  51  40 VRB5      29.95F                  
SHERIDAN       PTSUNNY   75  55  49 NW5       29.98R                  
BUFFALO        PTSUNNY   74  52  46 SE5       30.03F                  
GILLETTE       FAIR      78  57  48 NE7       29.99F                  
HULETT         MOCLDY    72  61  68 NE6       30.01                   
NEWCASTLE      CLOUDY    77  54  44 S9        29.99                   

$$
WYZ014>020-022>026-101>103-232200-
CENTRAL WYOMING
  
CITY           SKY/WX    TMP DP  RH WIND       PRES   REMARKS
BIG PINEY      CLOUDY    73  21  14 S3        30.10F                  
PINEDALE       FAIR      72  23  16 CALM      30.11S                  
DUBOIS         LGT RAIN  59  43  55 CALM      30.12                   
LANDER         FAIR      76  49  38 CALM      29.99F                  
RIVERTON       FAIR      79  50  36 VRB7      30.00F                  
CASPER         FAIR      81  49  32 N8        29.99F                  
DOUGLAS        FAIR      77  54  44 E8        30.01F                  

$$
WYZ021-027>030-104>119-232200-
SOUTHERN WYOMING
  
CITY           SKY/WX    TMP DP  RH WIND       PRES   REMARKS
EVANSTON       FAIR      76  32  20 W18G31    30.14S                  
KEMMERER       FAIR      73  21  14 W14G23    30.13                   
ROCK SPRINGS   PTSUNNY   79  35  20 W18G25    30.08F                  
DIXON          FAIR      83  21  10 S22G33    30.08F                  
RAWLINS        FAIR      85  28  12 SW23G32   30.07F                  
SARATOGA       FAIR      79  23  12 SW14G24   30.11F                  
LARAMIE        FAIR      78  27  15 NW14G21   30.13R                  
CHEYENNE       FAIR      83  48  29 SE15G22   30.06F                  
TORRINGTON     FAIR      81  63  54 SE9G20    29.96F                  
PINE BLUFFS    FAIR      77  61  57 SE15      30.04F                  

$$